星链-1722 (STARLINK-1722 )

导读 | 星芒AI

STARLINK-1722 是 SpaceX 星链计划中的一颗低轨通信卫星,属于第 5 批星链卫星(Batch 5/5B)。该卫星于 2021 年 2 月 18 日随猎鹰 9 号火箭从卡纳维拉尔角发射升空,部署在约 550 公里的轨道高度。作为星链星座的一部分,STARLINK-1722 旨在提供全球高速互联网服务,支持偏远地区的网络连接。该卫星采用先进设计,具备激光通信和自主变轨能力,有助于提升星链系统的稳定性和覆盖范围。

基本信息
目录编号:
46361
目录名称:
STARLINK-1722
国际标识:
2020-062AN
轨道中心:
EARTH
卫星名称:
星链-1722
卫星全名:
星链-1722 (STARLINK-1722 )
卫星状态:
已陨落 最后检测时间 2025-02-15
发射日期:
2020-09-03 UTC
国别 :
美国 (US)
星等 :
--
轨道信息
数据来源 国际轨道数据
星历时间: 2025-02-16T11:16:17+0800
轨道信息已过期303天
半长轴: 6532.996km
偏心率: 0.0007237
轨道倾角: 53.024°
近地点辐角 265.443°
升交点赤经 228.828°
平近点角 195.092°
近地点: 150.133km
远地点: 159.589km
周期: 87.585分钟
每日圈数: 16.441227
详细信息
固有亮度:
5
最大亮度:
2.5
卫星平台:
Starlink V1.0
覆盖范围:
全球
运营商:
太空探索技术公司
运营商所在国:
美国
制造商(研发单位):
太空探索技术公司
制造商所在国:
美国
使用方式:
暂无
卫星简介
星链(Starlink)计划是由太空探索技术公司(SpaceX)提出的一个巨型低轨卫星互联网星座项目,计划在2019年至2024年间在太空搭建由约1.2万颗卫星组成的“星链”网络,其中1584颗将部署在地球上空550千米处的近地轨道,并从2020年开始工作。该卫星仍在工作。